Miscellaneous Local Product
Issued by NWS Hastings, NE

Home | Current Version | Previous Version | Text Only | Print | Product List | Glossary Off
Versions: 1 2 3 4 5 6 7 8 9 10 11 12 13 14 15 16 17 18 19 20 21 22 23 24 25 26 27 28 29 30 31 32 33 34 35 36 37 38 39 40 41 42 43 44 45 46 47 48 49 50

000
AXUS43 KGID 240302
MISGRI

GID CWA HOURLY WEATHER ROUNDUP
NATIONAL WEATHER SERVICE HASTINGS NE
900 PM CST THU FEB 23 2017

NOTE: "FAIR" INDICATES FEW OR NO CLOUDS BELOW 12,000 FEET WITH NO
SIGNIFICANT WEATHER AND/OR OBSTRUCTIONS TO VISIBILITY.

...SOUTH CENTRAL NEBRASKA...

CITY           SKY/WX    TMP DP  RH WIND       PRES   REMARKS
GRAND ISLAND   LGT SNOW  30  29  96 N16       29.69R FOG     WCI  19
HASTINGS       CLOUDY    31  28  89 N16       29.68R WCI  20
KEARNEY        CLOUDY    30  25  80 N15       29.71R WCI  19
ORD            LGT SNOW  28  24  85 N20       29.73R FOG     WCI  15
YORK           RAIN      32  32 100 NE22      29.61F WCI  19
AURORA         CLOUDY    31  30  96 N17G24    29.66R WCI  19
LEXINGTON      LGT SNOW  29  26  88 N16       29.73S WCI  17
HOLDREGE       CLOUDY    30  27  91 N14G22    29.70R WCI  19
HEBRON         CLOUDY    34  33  96 NE16G24   29.58F WCI  23

...NEBRASKA PANHANDLE...

CITY           SKY/WX    TMP DP  RH WIND       PRES   REMARKS
CHADRON        LGT SNOW  25  22  88 NE14      29.93R FOG     WCI  13
ALLIANCE       LGT SNOW  22  19  89 N23       29.85R VSB 1   WCI   6
SCOTTSBLUFF    LGT SNOW  23  19  85 N6        29.89R FOG     WCI  16
SIDNEY         CLOUDY    21  18  88 N15       29.81S FOG     WCI   8

...WESTERN AND NORTH CENTRAL NEBRASKA...

CITY           SKY/WX    TMP DP  RH WIND       PRES   REMARKS
VALENTINE      CLOUDY    24  20  84 N22G30    29.87R FOG     WCI   9
AINSWORTH      CLOUDY    25  24  96 N25       29.83R WCI   9
ONEILL         CLOUDY    28  26  96 N25G33    29.75F WCI  13
BROKEN BOW     LGT SNOW  27  25  92 N18       29.74R VSB 3/4 WCI  14
IMPERIAL       LGT SNOW  25  21  85 N17       29.78R FOG     WCI  12
NORTH PLATTE   LGT SNOW  26  23  88 N8        29.77S FOG     WCI  18
MCCOOK         PTCLDY    27  25  92 N15       29.74R WCI  15

...EASTERN NEBRASKA...

CITY           SKY/WX    TMP DP  RH WIND       PRES   REMARKS
NORFOLK        LGT SNOW  29  26  89 NE17G25   29.72R FOG     WCI  17
SO SIOUX CITY  SNOW      33  29  85 NE21G29   29.71R VSB 1/4 WCI  21
TEKAMAH        LGT SNOW  33  30  88 N21       29.67R FOG     WCI  21
COLUMBUS       CLOUDY    30  27  86 NE22G30   29.67S WCI  17
ALBION         LGT SNOW  31  28  88 N13G21    29.71S VSB 3/4 WCI  21
OMAHA EPPLEY   RAIN      36  32  85 N21G28    29.57F FOG     WCI  25
OFFUTT AFB     CLOUDY    37  36  93 N15G25    29.55F WCI  28
MILLARD        LGT RAIN  38  36  91 N7G16     29.61R WCI  33
LINCOLN        LGT SNOW  33  32  96 N17       29.63R FOG     WCI  22
NEBRASKA CITY  LGT RAIN  40  39  97 NE18G25   29.51F WCI  31
BEATRICE       HVY RAIN  37  36  94 N20G26    29.56F WCI  27
FALLS CITY     CLOUDY    46  39  76 NE13G21   29.45F

...NORTHERN KANSAS...

CITY           SKY/WX    TMP DP  RH WIND       PRES   REMARKS
GOODLAND       CLOUDY    25  23  92 N18       29.74R WCI  11
HILL CITY      CLOUDY    33  30  88 N20G26    29.70R WCI  21
NORTON         CLOUDY    30  27  86 NW18G24   29.70R WCI  18
PHILLIPSBURG   CLOUDY    34  32  93 NW17G23   29.70R WCI  23
SMITH CENTER   CLOUDY    30  30 100 N17       29.67S WCI  18
HAYS           CLOUDY    35  30  82 N25       29.65R WCI  23
RUSSELL        CLOUDY    35  32  88 NW23      29.62R WCI  23
CONCORDIA      LGT RAIN  36  35  96 N13G24    29.59R WCI  27
SALINA         CLOUDY    41  35  79 N28G40    29.57R
TOPEKA         CLEAR     46  44  93 N8        29.39F



USA.gov is the U.S. government's official web portal to all federal, state and local government web resources and services.